[[{"header":{"parameterUnit":"m.s-1","parameterCategory":1,"la1":30.2991,"la2":30.254,"lo1":-89.0895,"lo2":-89.0444,"dy":0.0017,"dx":0.0017,"nx":28,"ny":28,"refTime":"2024-08-29T09:00:00:Z","depth":0,"parameterNumber":2,"parameterNumberName":"U-component_of_WINDS"},"data":[0,0,0,0,0,0,0,0,0,0,0,0,0,0,0,0,0,0,0,0,0,0,0,0,0,0,0,0,0,0,0,0,0,0,0,0,0,0,0,0,0,0,0,0,0,0,0,0,0,0,0,0,0,0,0,0,0,0,-5.7107,-5.7107,0,-5.7084,-5.7083,-5.7083,-5.6981,-5.6979,-5.6977,-5.6974,-5.6954,-5.6956,-5.6957,0,0,0,0,0,0,0,0,0,0,0,0,0,-5.7068,-5.7069,-5.7107,-5.7107,-5.7107,-5.7084,-5.7083,-5.7083,-5.6982,-5.6979,-5.6976,-5.6973,-5.6954,-5.6956,-5.6958,0,0,0,0,0,0,0,0,0,0,0,0,0,-5.7069,-5.7069,-5.7107,-5.7053,-5.7048,-5.7084,-5.7083,-5.7083,-5.6982,-5.6979,-5.6975,-5.6972,-5.6953,-5.6955,-5.6958,-5.7045,0,0,-5.6966,-5.6967,0,0,0,0,0,0,0,0,-5.7069,-5.707,-5.7062,-5.7057,-5.7051,-5.7032,-5.7062,-5.707,-5.6983,-5.7008,-5.6974,-5.697,-5.6983,-5.6983,-5.6987,-5.7044,-5.7043,-5.6966,-5.6967,-5.6968,-5.6969,0,0,0,0,0,0,0,-5.7069,-5.7071,-5.7098,-5.7062,-5.7055,-5.7031,-5.7027,-5.7063,-5.7016,-5.7005,-5.6998,-5.6996,-5.698,-5.6984,-5.6985,-5.7043,-5.6966,-5.6968,-5.697,-5.6971,-5.717,-5.7173,0,0,0,0,0,0,-5.7076,-5.7071,-5.7099,-5.7097,-5.7051,-5.7035,-5.7031,-5.7042,-5.7015,-5.7008,-5.6999,-5.6991,-5.6982,-5.6982,-5.6984,-5.7083,-5.6968,-5.6971,-5.6972,-5.7166,-5.7171,-5.7175,0,0,0,0,0,0,-5.7076,-5.7079,-5.71,-5.7082,-5.7083,-5.7039,-5.7053,-5.7043,-5.7047,-5.701,-5.7002,-5.7012,-5.6979,-5.6981,-5.703,-5.7081,-5.6972,-5.6974,-5.7162,-5.7167,-5.7173,-5.7283,0,0,0,0,0,0,-5.7075,-5.708,-5.7112,-5.7084,-5.7084,-5.7145,-5.7056,-5.7045,-5.7052,-5.7041,-5.7021,-5.7014,-5.6976,-5.7027,-5.7033,-5.7082,-5.6976,-5.7157,-5.7164,-5.7171,-5.7274,-5.7291,-5.7306,0,0,0,0,0,-5.7074,-5.7145,-5.7114,-5.7118,-5.7123,-5.7148,-5.7149,-5.7103,-5.7056,-5.7088,-5.7064,-5.7014,-5.7075,-5.7033,-5.7038,-5.709,-5.7153,-5.7162,-5.717,-5.7267,-5.7288,-5.7306,0,0,0,0,0,0,-5.7181,-5.714,-5.7105,-5.7169,-5.7163,-5.7131,-5.717,-5.7127,-5.7135,-5.7125,-5.7069,-5.7066,-5.7123,-5.7112,-5.7066,-5.7172,-5.7106,-5.7116,-5.7177,-5.7197,-5.7212,-5.7213,-5.6978,0,0,0,0,0,-5.7212,-5.7235,-5.7198,-5.7258,-5.7257,-5.7214,-5.7224,-5.7189,-5.7181,-5.7178,-5.7158,-5.7153,-5.717,-5.7183,-5.7198,-5.7273,-5.7266,-5.7311,-5.7327,-5.734,-5.7349,-5.7387,-5.7406,-5.7203,-5.7203,-5.7202,0,0,-5.7277,-5.7257,-5.7275,-5.7279,-5.727,-5.7296,-5.7213,-5.7244,-5.7262,-5.7183,-5.7227,-5.7213,-5.7204,-5.7266,-5.7293,-5.7258,-5.7404,-5.7351,-5.7362,-5.7363,-5.7397,-5.7417,-5.7434,-5.7208,-5.7207,-5.7206,0,0,-5.7406,-5.7395,-5.7442,-5.7435,-5.7421,-5.7393,-5.7405,-5.7379,-5.7366,-5.741,-5.735,-5.7373,-5.7405,-5.74,-5.7402,-5.753,-5.7484,-5.7537,-5.7619,-5.7657,-5.7673,-5.7687,-5.7731,-5.7748,-5.7546,-5.7547,-5.7547,0,-5.7488,-5.7523,-5.7473,-5.7507,-5.751,-5.7439,-5.7487,-5.7482,-5.7476,-5.748,-5.7442,-5.7479,-5.7469,-5.7528,-5.7559,-5.7564,-5.7575,-5.7538,-5.7674,-5.7688,-5.77,-5.7742,-5.7759,-5.7553,-5.7552,-5.7552,-5.7551,0,-5.7624,-5.765,-5.769,-5.7683,-5.7691,-5.7733,-5.7689,-5.7704,-5.7669,-5.7645,-5.769,-5.7674,-5.7683,-5.7696,-5.7663,-5.7751,-5.773,-5.7684,-5.7616,-5.7727,-5.7765,-5.7781,-5.7562,-5.756,-5.7558,-5.7556,0,0,-5.782,-5.7784,-5.78,-5.7795,-5.7776,-5.7795,-5.7834,-5.7841,-5.7854,-5.7853,-5.7883,-5.7912,-5.7869,-5.7871,-5.7837,-5.7871,-5.7972,-5.782,-5.7819,-5.7848,-5.8067,-5.81,-5.812,-5.7942,-5.7945,-5.7947,-5.8067,0,-5.7943,-5.8004,-5.796,-5.8029,-5.8052,-5.7984,-5.8018,-5.801,-5.7989,-5.8005,-5.7982,-5.8003,-5.7945,-5.7946,-5.7976,-5.7953,-5.8015,-5.7944,-5.797,-5.7971,-5.7972,-5.814,-5.8175,-5.8289,-5.8082,-5.8085,-5.8086,0,-5.8094,-5.8097,-5.8168,-5.8143,-5.815,-5.8181,-5.8184,-5.8201,-5.8191,-5.8173,-5.8176,-5.8133,-5.817,-5.8104,-5.8153,-5.8106,-5.8115,-5.8105,-5.8108,-5.8108,-5.8035,-5.8143,-5.8325,-5.8342,-5.811,-5.8108,-5.8106,0,-5.8228,-5.825,-5.8295,-5.8294,-5.8266,-5.8289,-5.8278,-5.8265,-5.8272,-5.8275,-5.8279,-5.8288,-5.8293,-5.8301,-5.8262,-5.8218,-5.8317,-5.8248,-5.8303,-5.8304,-5.8325,-5.8324,-5.851,-5.8334,-5.8334,-5.8333,-5.8333,0,-5.8369,-5.8415,-5.8354,-5.8382,-5.8432,-5.8381,-5.8432,-5.8415,-5.8403,-5.8427,-5.837,-5.8394,-5.8342,-5.8361,-5.8331,-5.8376,-5.8379,-5.8366,-5.8357,-5.837,-5.8372,-5.8373,-5.8364,-5.8338,-5.8337,-5.8336,-5.8335,0,-5.8527,-5.8488,-5.8532,-5.8502,-5.8495,-5.8533,-5.8508,-5.8532,-5.8507,-5.8538,-5.8542,-5.8503,-5.8522,-5.8484,-5.8499,-5.8479,-5.8542,-5.8522,-5.8545,-5.8538,-5.8595,-5.859,-5.8788,-5.8811,-5.8621,-5.8623,-5.8625,0,-5.8618,-5.8652,-5.8624,-5.8635,-5.8627,-5.8646,-5.8653,-5.8604,-5.8614,-5.8605,-5.8631,-5.8645,-5.8653,-5.8687,-5.8661,-5.8672,-5.865,-5.8719,-5.8652,-5.8663,-5.865,-5.8648,-5.865,-5.8733,-5.8735,-5.8737,-5.8738,0,-5.8785,-5.8763,-5.8774,-5.8779,-5.8787,-5.8789,-5.8787,-5.8799,-5.8748,-5.8762,-5.8779,-5.8786,-5.88,-5.8814,-5.8819,-5.8809,-5.8766,-5.876,-5.8773,-5.8786,-5.8797,-5.879,-5.8581,-5.8755,-5.8753,-5.8752,-5.8751,-5.8751,-5.8911,-5.8937,-5.8921,-5.8935,-5.8928,-5.8927,-5.8948,-5.8925,-5.8938,-5.8944,-5.8916,-5.894,-5.8929,-5.893,-5.8926,-5.8945,-5.8914,-5.8933,-5.8938,-5.8943,-5.8952,-5.8795,-5.8946,-5.8945,-5.8945,-5.8944,-5.8944,0,-5.9073,-5.9059,-5.9073,-5.907,-5.9081,-5.9037,-5.9032,-5.9045,-5.9066,-5.9059,-5.9068,-5.9089,-5.9102,-5.9077,-5.9087,-5.9107,-5.9087,-5.9111,-5.9109,-5.9107,-5.8979,-5.8966,-5.9127,-5.9127,-5.9127,-5.9127,-5.9127,-5.9127,-5.9159,-5.92,-5.9177,-5.9215,-5.9201,-5.9223,-5.9223,-5.9222,-5.9216,-5.9241,-5.9251,-5.9234,-5.922,-5.9228,-5.9239,-5.9231,-5.9237,-5.9268,-5.9254,-5.9134,-5.9116,-5.9099,-5.9086,-5.927,-5.927,-5.938,-5.9381,-5.9382]},{"header":{"parameterUnit":"m.s-1","parameterCategory":1,"la1":30.2991,"la2":30.254,"lo1":-89.0895,"lo2":-89.0444,"dy":0.0017,"dx":0.0017,"nx":28,"ny":28,"refTime":"2024-08-29T09:00:00:Z","depth":0,"parameterNumber":3,"parameterNumberName":"V-component_of_WINDS"},"data":[0,0,0,0,0,0,0,0,0,0,0,0,0,0,0,0,0,0,0,0,0,0,0,0,0,0,0,0,0,0,0,0,0,0,0,0,0,0,0,0,0,0,0,0,0,0,0,0,0,0,0,0,0,0,0,0,0,0,5.0219,5.022,0,5.0322,5.0323,5.0324,5.0309,5.0307,5.0305,5.0304,5.0401,5.0406,5.041,0,0,0,0,0,0,0,0,0,0,0,0,0,5.0006,5.001,5.0219,5.022,5.0222,5.0322,5.0323,5.0325,5.0309,5.0307,5.0305,5.0303,5.04,5.0405,5.041,0,0,0,0,0,0,0,0,0,0,0,0,0,5.0102,5.0011,5.0219,5.0226,5.0228,5.0322,5.0323,5.0325,5.031,5.0307,5.0304,5.0302,5.0398,5.0405,5.0411,5.0501,0,0,5.043,5.0433,0,0,0,0,0,0,0,0,5.0097,5.011,5.0224,5.0226,5.0228,5.03,5.0284,5.0384,5.031,5.0278,5.0304,5.0301,5.0369,5.0378,5.0403,5.0506,5.051,5.0431,5.0434,5.0437,5.0439,0,0,0,0,0,0,0,5.009,5.0105,5.026,5.0226,5.0228,5.0223,5.0234,5.0303,5.0337,5.0281,5.028,5.0293,5.037,5.0397,5.0405,5.0511,5.043,5.0436,5.044,5.0442,5.0698,5.0701,0,0,0,0,0,0,5.0082,5.01,5.0256,5.0263,5.0155,5.0229,5.0241,5.0279,5.0336,5.0342,5.0295,5.0292,5.0387,5.0397,5.0408,5.0519,5.0437,5.0443,5.0447,5.0695,5.0699,5.0702,0,0,0,0,0,0,5.0078,5.0096,5.0252,5.0181,5.0201,5.0236,5.0279,5.0283,5.0309,5.0347,5.0352,5.0316,5.0385,5.0399,5.048,5.0522,5.0446,5.0452,5.0692,5.0696,5.07,5.0741,0,0,0,0,0,0,5.0072,5.0095,5.013,5.0182,5.0205,5.0323,5.0281,5.0287,5.0321,5.0318,5.0368,5.0374,5.0384,5.047,5.0486,5.053,5.0456,5.0688,5.0694,5.0699,5.0736,5.0747,5.0756,0,0,0,0,0,5.0064,5.0135,5.0132,5.015,5.025,5.0325,5.0338,5.0351,5.0325,5.036,5.0385,5.0372,5.0516,5.0479,5.0496,5.0542,5.0685,5.0692,5.0698,5.0732,5.0745,5.0756,0,0,0,0,0,0,5.0081,5.0141,5.0138,5.0229,5.0273,5.0323,5.0367,5.0364,5.0413,5.0408,5.042,5.0431,5.0513,5.0536,5.0493,5.0635,5.0597,5.0607,5.0616,5.0629,5.0638,5.063,5.0462,0,0,0,0,0,5.0097,5.0155,5.0204,5.0279,5.0301,5.0331,5.0364,5.0372,5.0416,5.0433,5.0464,5.0506,5.0561,5.0597,5.0649,5.0741,5.0752,5.0782,5.0792,5.08,5.0808,5.086,5.0874,5.0724,5.0724,5.0724,0,0,5.0127,5.0167,5.0202,5.0283,5.0318,5.0377,5.0346,5.0409,5.0453,5.0442,5.0521,5.0545,5.0593,5.0681,5.0721,5.0702,5.0853,5.0808,5.0814,5.0818,5.0869,5.0883,5.0895,5.0729,5.0728,5.0727,0,0,5.0212,5.0249,5.0316,5.0354,5.0409,5.0429,5.0446,5.0498,5.0515,5.0595,5.059,5.0642,5.0736,5.0771,5.0802,5.0908,5.0899,5.0925,5.0974,5.1026,5.1037,5.1048,5.1086,5.1099,5.0934,5.0934,5.0934,0,5.0241,5.0332,5.035,5.0416,5.0453,5.0451,5.052,5.0554,5.0622,5.0647,5.0627,5.0749,5.078,5.0877,5.0904,5.0929,5.0948,5.0917,5.1035,5.1045,5.1055,5.1092,5.1106,5.0937,5.0936,5.0936,5.0936,0,5.0366,5.043,5.0478,5.0549,5.0591,5.0657,5.0685,5.0726,5.0731,5.0754,5.0837,5.0877,5.0939,5.0963,5.0967,5.1062,5.1049,5.1032,5.0993,5.1072,5.1107,5.1121,5.0941,5.094,5.0939,5.0938,0,0,5.0458,5.0545,5.0561,5.0595,5.0659,5.0708,5.0776,5.084,5.0875,5.0924,5.098,5.1064,5.105,5.1085,5.1094,5.1139,5.1222,5.1117,5.1118,5.1134,5.133,5.1341,5.1357,5.1218,5.1221,5.1223,5.1326,0,5.0549,5.0672,5.0693,5.0799,5.0859,5.0862,5.0922,5.0967,5.0992,5.1045,5.1071,5.113,5.1108,5.1129,5.1175,5.1202,5.1261,5.1196,5.1269,5.1272,5.1255,5.1375,5.1386,5.148,5.134,5.1342,5.1344,0,5.0669,5.0727,5.084,5.0901,5.0926,5.0979,5.1042,5.1094,5.1147,5.1162,5.1204,5.1209,5.128,5.1242,5.1339,5.1294,5.1327,5.1346,5.135,5.1355,5.131,5.1382,5.1511,5.1524,5.1365,5.1363,5.1362,0,5.0726,5.0831,5.0913,5.0942,5.1014,5.1052,5.1083,5.1134,5.1173,5.1228,5.1254,5.1315,5.1348,5.1396,5.1418,5.1388,5.1514,5.1477,5.1527,5.1527,5.155,5.1548,5.1685,5.1575,5.1575,5.1575,5.1574,0,5.0823,5.0892,5.094,5.099,5.1068,5.1094,5.117,5.12,5.1247,5.1303,5.1309,5.1361,5.1388,5.1444,5.1462,5.1541,5.1556,5.1569,5.1572,5.1567,5.1565,5.1586,5.1579,5.1579,5.1578,5.1577,5.1576,0,5.0896,5.0931,5.1021,5.1085,5.1103,5.1158,5.1212,5.1261,5.1288,5.1359,5.1377,5.1419,5.1486,5.1515,5.1595,5.1608,5.1698,5.1697,5.1681,5.1681,5.173,5.1724,5.1882,5.1904,5.1782,5.1783,5.1784,0,5.0954,5.1009,5.1081,5.1121,5.1155,5.1218,5.1259,5.1288,5.1331,5.1399,5.1439,5.1508,5.1563,5.1671,5.1707,5.177,5.177,5.1822,5.1779,5.1773,5.177,5.1765,5.1771,5.1827,5.1829,5.183,5.1831,0,5.1054,5.1071,5.1132,5.1201,5.1252,5.1306,5.1359,5.1391,5.1428,5.1476,5.1547,5.1591,5.1677,5.1745,5.1811,5.1842,5.1843,5.1845,5.186,5.1853,5.1841,5.1848,5.17,5.184,5.1839,5.1838,5.1838,5.1837,5.1121,5.1171,5.1231,5.13,5.1344,5.1395,5.1446,5.1482,5.1543,5.1617,5.1631,5.1707,5.1762,5.1852,5.1887,5.1946,5.1932,5.1954,5.1959,5.1963,5.1966,5.1835,5.1958,5.1958,5.1958,5.1957,5.1957,0,5.1221,5.1262,5.1325,5.1402,5.1457,5.1459,5.1519,5.1564,5.1632,5.1685,5.1742,5.1825,5.1892,5.1937,5.2005,5.2044,5.2046,5.2061,5.2056,5.2064,5.1974,5.1954,5.2058,5.2058,5.2058,5.2058,5.2058,5.2058,5.1279,5.1364,5.1388,5.1496,5.1536,5.1613,5.1647,5.1695,5.1738,5.1832,5.1889,5.192,5.197,5.2043,5.2105,5.2116,5.214,5.2156,5.2166,5.208,5.207,5.206,5.2041,5.2161,5.2161,5.2251,5.2251,5.2252]}]]